Regional Weather Roundup
Issued by NWS Charleston, WV

Home | Current Version | Previous Version | Graphics & Text | Print | Product List | Glossary On
Versions: 1 2 3 4 5 6 7 8 9 10 11 12 13 14 15 16 17 18 19 20 21 22 23 24 25 26 27 28 29 30 31 32 33 34 35 36 37 38 39 40 41 42 43 44 45 46 47 48 49 50
000
ASUS41 KRLX 030010
RWRRLX
West Virginia Regional Weather Roundup
National Weather Service Charleston WV
700 PM EST MON MAR 02 2015

Note: "fair" indicates few or no clouds below 12,000 feet with no
significant weather and/or obstructions to visibility.

WVZ003-030100-
Northern Panhandle of West Virginia

CITY           SKY/WX    TMP DP  RH WIND       PRES   REMARKS
WHEELING       CLEAR     27  12  53 N5        30.41R
$$

WVZ009-030100-
Northwest West Virginia

CITY           SKY/WX    TMP DP  RH WIND       PRES   REMARKS
PARKERSBURG    CLEAR     31  14  49 CALM      30.45R
$$

WVZ006-030100-
Western West Virginia

CITY           SKY/WX    TMP DP  RH WIND       PRES   REMARKS
HUNTINGTON     PTCLDY    33  17  51 NE5       30.41R
$$

WVZ015-030100-
West Central West Virginia

CITY           SKY/WX    TMP DP  RH WIND       PRES   REMARKS
CHARLESTON     PTCLDY    34  17  50 N6        30.40R
$$

WVZ022-031-030100-
North Central West Virginia

CITY           SKY/WX    TMP DP  RH WIND       PRES   REMARKS
CLARKSBURG     CLEAR     30  16  56 NW5       30.39R
MORGANTOWN     CLEAR     30  13  49 CALM      30.40R
$$

WVZ025-035-042-045-030100-
Southern West Virginia

CITY           SKY/WX    TMP DP  RH WIND       PRES   REMARKS
BECKLEY        CLEAR     32  14  47 NE5       30.31R
LOGAN            N/A     36  19  51 CALM      30.32R
BLUEFIELD      MOCLDY    36  17  46 W6        30.30R
LEWISBURG      PTCLDY    35  14  42 CALM      30.32R
$$

WVZ047-030100-
Northern Mountains of West Virginia

CITY           SKY/WX    TMP DP  RH WIND       PRES   REMARKS
ELKINS         CLEAR     29  17  61 NW5       30.35R
$$

WVZ052-030100-
Eastern Panhandle of West Virginia

CITY           SKY/WX    TMP DP  RH WIND       PRES   REMARKS
MARTINSBURG    CLEAR     34  14  43 N7        30.37R
PETERSBURG     CLEAR     35  14  41 N3        30.38R
$$



USA.gov is the U.S. government's official web portal to all federal, state and local government web resources and services.